| time (UTC) | temp C | wind direction | speed KPH | gust KPH | rain 1hr cm | rain 24hr cm | rain mn cm | humidity % | barometer mb |
| 20260906035518 | 17 | 179 | 0.0 | 0.0 | 0.00 | 0.00 | 0.00 | 70 | 1025.6 |
| 20260906035020 | 17 | 179 | 0.0 | 0.0 | 0.00 | 0.00 | 0.00 | 71 | 1025.5 |
| 20260906034531 | 17 | 184 | 0.0 | 0.0 | 0.00 | 0.00 | 0.00 | 72 | 1025.5 |
| 20260906034014 | 17 | 184 | 0.0 | 0.0 | 0.00 | 0.00 | 0.00 | 73 | 1025.4 |
| 20260906033514 | 17 | 184 | 0.0 | 0.0 | 0.00 | 0.00 | 0.00 | 73 | 1025.3 |
| 20260906033032 | 17 | 188 | 0.0 | 0.0 | 0.00 | 0.00 | 0.00 | 72 | 1025.2 |
| 20260906032509 | 17 | 188 | 0.0 | 0.0 | 0.00 | 0.00 | 0.00 | 71 | 1025.2 |
| 20260906032010 | 17 | 188 | 0.0 | 0.0 | 0.00 | 0.00 | 0.00 | 71 | 1025.3 |
| 20260906031518 | 17 | 188 | 0.0 | 0.0 | 0.00 | 0.00 | 0.00 | 71 | 1025.2 |
| 20260906031014 | 17 | 188 | 0.0 | 0.0 | 0.00 | 0.00 | 0.00 | 70 | 1025.1 |
| 20260906030516 | 17 | 188 | 0.0 | 0.0 | 0.00 | 0.00 | 0.00 | 70 | 1025.1 |
| 20260906030026 | 17 | 188 | 0.0 | 0.0 | 0.00 | 0.00 | 0.00 | 70 | 1025.0 |
| 20260906025513 | 17 | 188 | 0.0 | 0.0 | 0.00 | 0.00 | 0.00 | 70 | 1024.9 |
| 20260906025014 | 17 | 189 | 0.0 | 0.0 | 0.00 | 0.00 | 0.00 | 70 | 1024.9 |
| 20260906024529 | 17 | 189 | 0.0 | 0.0 | 0.00 | 0.00 | 0.00 | 70 | 1025.0 |
| 20260906024016 | 17 | 189 | 0.0 | 0.0 | 0.00 | 0.00 | 0.00 | 70 | 1024.9 |
| 20260906023516 | 18 | 189 | 0.0 | 0.0 | 0.00 | 0.00 | 0.00 | 69 | 1024.9 |
| 20260906023031 | 18 | 189 | 0.0 | 0.0 | 0.00 | 0.00 | 0.00 | 68 | 1025.0 |
| 20260906022519 | 18 | 189 | 0.0 | 0.0 | 0.00 | 0.00 | 0.00 | 68 | 1025.0 |
| 20260906022019 | 18 | 189 | 0.0 | 0.0 | 0.00 | 0.00 | 0.00 | 68 | 1025.0 |
| 20260906021518 | 18 | 315 | 0.0 | 0.0 | 0.00 | 0.00 | 0.00 | 69 | 1024.9 |
| 20260906021009 | 18 | 316 | 0.0 | 0.0 | 0.00 | 0.00 | 0.00 | 70 | 1025.0 |
| 20260906020512 | 17 | 316 | 0.0 | 0.0 | 0.00 | 0.00 | 0.00 | 71 | 1025.0 |
| 20260906020019 | 17 | 316 | 0.0 | 0.0 | 0.00 | 0.00 | 0.00 | 70 | 1025.0 |
| 20260906015516 | 18 | 316 | 0.0 | 0.0 | 0.00 | 0.00 | 0.00 | 70 | 1024.8 |
| 20260906015015 | 18 | 316 | 0.0 | 0.0 | 0.00 | 0.00 | 0.00 | 69 | 1024.8 |
| 20260906014529 | 18 | 316 | 0.0 | 0.0 | 0.00 | 0.00 | 0.00 | 68 | 1024.7 |
| 20260906014016 | 18 | 316 | 0.0 | 0.0 | 0.00 | 0.00 | 0.00 | 67 | 1024.8 |
| 20260906013514 | 18 | 316 | 0.0 | 0.0 | 0.00 | 0.00 | 0.00 | 66 | 1024.8 |
| 20260906013034 | 18 | 316 | 0.0 | 0.0 | 0.00 | 0.00 | 0.00 | 67 | 1024.8 |
| 20260906012522 | 18 | 316 | 0.0 | 4.8 | 0.00 | 0.00 | 0.00 | 67 | 1024.8 |
| 20260906012019 | 18 | 316 | 0.0 | 4.8 | 0.00 | 0.00 | 0.00 | 67 | 1024.8 |
| 20260906011534 | 18 | 187 | 0.0 | 3.2 | 0.00 | 0.00 | 0.00 | 67 | 1024.8 |
| 20260906011021 | 18 | 181 | 0.0 | 3.2 | 0.00 | 0.00 | 0.00 | 68 | 1024.8 |
| 20260906010510 | 18 | 131 | 0.0 | 0.0 | 0.00 | 0.00 | 0.00 | 69 | 1024.8 |
| 20260906010020 | 18 | 131 | 0.0 | 1.6 | 0.00 | 0.00 | 0.00 | 69 | 1024.8 |
| 20260906005512 | 18 | 131 | 0.0 | 1.6 | 0.00 | 0.00 | 0.00 | 69 | 1024.7 |
| 20260906005013 | 18 | 131 | 0.0 | 1.6 | 0.00 | 0.00 | 0.00 | 68 | 1024.5 |
| 20260906004523 | 18 | 131 | 0.0 | 1.6 | 0.00 | 0.00 | 0.00 | 68 | 1024.4 |
| 20260906004019 | 18 | 131 | 0.0 | 1.6 | 0.00 | 0.00 | 0.00 | 68 | 1024.5 |
| 20260906003519 | 18 | 103 | 0.0 | 1.6 | 0.00 | 0.00 | 0.00 | 68 | 1024.4 |
| 20260906003027 | 18 | 103 | 0.0 | 3.2 | 0.00 | 0.00 | 0.00 | 67 | 1024.4 |
| 20260906002515 | 19 | 115 | 0.0 | 3.2 | 0.00 | 0.00 | 0.00 | 67 | 1024.5 |
| 20260906002016 | 19 | 148 | 0.0 | 0.0 | 0.00 | 0.00 | 0.00 | 67 | 1024.5 |
| 20260906001533 | 19 | 191 | 0.0 | 0.0 | 0.00 | 0.00 | 0.00 | 67 | 1024.5 |
| 20260906001015 | 19 | 191 | 0.0 | 0.0 | 0.00 | 0.00 | 0.00 | 67 | 1024.4 |
| 20260906000514 | 19 | 191 | 0.0 | 0.0 | 0.00 | 0.00 | 0.00 | 67 | 1024.4 |
| 20260906000031 | 19 | 191 | 0.0 | 0.0 | 0.00 | 0.00 | 0.00 | 66 | 1024.4 |
| 20260905235516 | 19 | 191 | 0.0 | 0.0 | 0.00 | 0.00 | 0.00 | 66 | 1024.4 |
| 20260905235011 | 19 | 191 | 0.0 | 0.0 | 0.00 | 0.00 | 0.00 | 66 | 1024.4 |
| 20260905234523 | 19 | 191 | 0.0 | 0.0 | 0.00 | 0.00 | 0.00 | 65 | 1024.3 |
| 20260905234012 | 20 | 191 | 0.0 | 0.0 | 0.00 | 0.00 | 0.00 | 65 | 1024.2 |
| 20260905233514 | 20 | 191 | 0.0 | 0.0 | 0.00 | 0.00 | 0.00 | 64 | 1024.1 |
| 20260905233025 | 20 | 191 | 0.0 | 1.6 | 0.00 | 0.00 | 0.00 | 63 | 1024.1 |
| 20260905232503 | 20 | 191 | 0.0 | 1.6 | 0.00 | 0.00 | 0.00 | 63 | 1024.1 |
| 20260905232003 | 20 | 191 | 0.0 | 4.8 | 0.00 | 0.00 | 0.00 | 63 | 1024.0 |
| 20260905231517 | 20 | 191 | 0.0 | 4.8 | 0.00 | 0.00 | 0.00 | 63 | 1024.1 |
| 20260905231005 | 20 | 186 | 0.0 | 1.6 | 0.00 | 0.00 | 0.00 | 64 | 1024.1 |
| 20260905230506 | 20 | 182 | 0.0 | 1.6 | 0.00 | 0.00 | 0.00 | 64 | 1024.0 |
| 20260905230013 | 20 | 191 | 0.0 | 1.6 | 0.00 | 0.00 | 0.00 | 63 | 1024.1 |
| 20260905225510 | 20 | 194 | 0.0 | 0.0 | 0.00 | 0.00 | 0.00 | 62 | 1024.0 |
| 20260905225014 | 20 | 194 | 0.0 | 0.0 | 0.00 | 0.00 | 0.00 | 61 | 1024.0 |
| 20260905224546 | 20 | 194 | 0.0 | 0.0 | 0.00 | 0.00 | 0.00 | 61 | 1023.9 |
| 20260905224010 | 20 | 194 | 0.0 | 1.6 | 0.00 | 0.00 | 0.00 | 61 | 1023.8 |
| 20260905223513 | 20 | 194 | 0.0 | 1.6 | 0.00 | 0.00 | 0.00 | 60 | 1023.8 |
| 20260905223026 | 20 | 194 | 0.0 | 1.6 | 0.00 | 0.00 | 0.00 | 60 | 1023.8 |
| 20260905222515 | 20 | 194 | 0.0 | 3.2 | 0.00 | 0.00 | 0.00 | 60 | 1023.8 |
| 20260905222003 | 20 | 195 | 0.0 | 3.2 | 0.00 | 0.00 | 0.00 | 59 | 1023.8 |
| 20260905221507 | 20 | 144 | 0.0 | 1.6 | 0.00 | 0.00 | 0.00 | 59 | 1023.8 |
| 20260905221003 | 20 | 144 | 0.0 | 1.6 | 0.00 | 0.00 | 0.00 | 60 | 1023.9 |
| 20260905220503 | 20 | 144 | 0.0 | 1.6 | 0.00 | 0.00 | 0.00 | 60 | 1023.9 |
| 20260905220011 | 20 | 144 | 0.0 | 1.6 | 0.00 | 0.00 | 0.00 | 59 | 1023.8 |
| 20260905215509 | 20 | 144 | 0.0 | 0.0 | 0.00 | 0.00 | 0.00 | 60 | 1023.9 |
| 20260905215014 | 20 | 144 | 0.0 | 1.6 | 0.00 | 0.00 | 0.00 | 61 | 1023.8 |
| 20260905214517 | 20 | 144 | 0.0 | 1.6 | 0.00 | 0.00 | 0.00 | 61 | 1023.7 |
| 20260905214010 | 20 | 144 | 0.0 | 0.0 | 0.00 | 0.00 | 0.00 | 61 | 1023.7 |
| 20260905213510 | 20 | 144 | 0.0 | 1.6 | 0.00 | 0.00 | 0.00 | 61 | 1023.6 |
| 20260905213022 | 21 | 144 | 0.0 | 1.6 | 0.00 | 0.00 | 0.00 | 60 | 1023.6 |
| 20260905212510 | 21 | 144 | 0.0 | 1.6 | 0.00 | 0.00 | 0.00 | 59 | 1023.5 |
| 20260905212012 | 21 | 145 | 0.0 | 0.0 | 0.00 | 0.00 | 0.00 | 59 | 1023.5 |
| 20260905211540 | 21 | 144 | 0.0 | 1.6 | 0.00 | 0.00 | 0.00 | 59 | 1023.5 |
| 20260905211014 | 21 | 145 | 0.0 | 1.6 | 0.00 | 0.00 | 0.00 | 58 | 1023.5 |
| 20260905210503 | 21 | 144 | 0.0 | 1.6 | 0.00 | 0.00 | 0.00 | 57 | 1023.4 |
| 20260905210016 | 21 | 144 | 0.0 | 1.6 | 0.00 | 0.00 | 0.00 | 57 | 1023.3 |
| 20260905205503 | 21 | 144 | 0.0 | 1.6 | 0.00 | 0.00 | 0.00 | 56 | 1023.2 |
| 20260905205009 | 21 | 144 | 0.0 | 1.6 | 0.00 | 0.00 | 0.00 | 57 | 1023.2 |
| 20260905204507 | 21 | 144 | 0.0 | 1.6 | 0.00 | 0.00 | 0.00 | 58 | 1023.3 |
| 20260905204007 | 21 | 144 | 0.0 | 1.6 | 0.00 | 0.00 | 0.00 | 58 | 1023.3 |
| 20260905203509 | 21 | 144 | 0.0 | 1.6 | 0.00 | 0.00 | 0.00 | 58 | 1023.2 |
| 20260905203018 | 21 | 144 | 0.0 | 1.6 | 0.00 | 0.00 | 0.00 | 58 | 1023.2 |
| 20260905202508 | 21 | 144 | 0.0 | 1.6 | 0.00 | 0.00 | 0.00 | 58 | 1023.2 |
| 20260905202013 | 21 | 144 | 0.0 | 1.6 | 0.00 | 0.00 | 0.00 | 57 | 1023.2 |
| 20260905201527 | 21 | 144 | 0.0 | 1.6 | 0.00 | 0.00 | 0.00 | 57 | 1023.1 |
| 20260905201012 | 21 | 144 | 0.0 | 1.6 | 0.00 | 0.00 | 0.00 | 58 | 1023.1 |
| 20260905200521 | 21 | 144 | 0.0 | 1.6 | 0.00 | 0.00 | 0.00 | 57 | 1023.1 |
| 20260905200029 | 21 | 144 | 0.0 | 1.6 | 0.00 | 0.00 | 0.00 | 57 | 1023.0 |
| 20260905195507 | 21 | 144 | 0.0 | 1.6 | 0.00 | 0.00 | 0.00 | 57 | 1022.9 |
| 20260905195004 | 21 | 144 | 0.0 | 1.6 | 0.00 | 0.00 | 0.00 | 56 | 1022.8 |
| 20260905194509 | 21 | 145 | 0.0 | 1.6 | 0.00 | 0.00 | 0.00 | 56 | 1022.6 |
| 20260905194007 | 21 | 144 | 0.0 | 1.6 | 0.00 | 0.00 | 0.00 | 56 | 1022.5 |
| 20260905193509 | 21 | 145 | 0.0 | 1.6 | 0.00 | 0.00 | 0.00 | 56 | 1022.4 |
| 20260905193015 | 21 | 144 | 0.0 | 1.6 | 0.00 | 0.00 | 0.00 | 55 | 1022.5 |
| 20260905192511 | 21 | 144 | 0.0 | 1.6 | 0.00 | 0.00 | 0.00 | 55 | 1022.4 |
| 20260905192009 | 21 | 145 | 0.0 | 1.6 | 0.00 | 0.00 | 0.00 | 55 | 1022.3 |
| 20260905191520 | 22 | 145 | 0.0 | 1.6 | 0.00 | 0.00 | 0.00 | 56 | 1022.3 |
| 20260905191016 | 22 | 122 | 0.0 | 1.6 | 0.00 | 0.00 | 0.00 | 55 | 1022.3 |
| 20260905190513 | 22 | 122 | 0.0 | 1.6 | 0.00 | 0.00 | 0.00 | 55 | 1022.3 |
| 20260905190027 | 22 | 122 | 0.0 | 1.6 | 0.00 | 0.00 | 0.00 | 55 | 1022.2 |
| 20260905185516 | 22 | 122 | 0.0 | 1.6 | 0.00 | 0.00 | 0.00 | 54 | 1022.1 |
| 20260905185013 | 22 | 122 | 0.0 | 1.6 | 0.00 | 0.00 | 0.00 | 55 | 1022.1 |
| 20260905184530 | 22 | 122 | 0.0 | 1.6 | 0.00 | 0.00 | 0.00 | 55 | 1022.1 |
| 20260905184003 | 22 | 122 | 0.0 | 1.6 | 0.00 | 0.00 | 0.00 | 55 | 1022.0 |
| 20260905183508 | 22 | 122 | 0.0 | 1.6 | 0.00 | 0.00 | 0.00 | 55 | 1022.0 |
| 20260905183011 | 21 | 114 | 0.0 | 1.6 | 0.00 | 0.00 | 0.00 | 55 | 1021.9 |
| 20260905182508 | 22 | 98 | 0.0 | 1.6 | 0.00 | 0.00 | 0.00 | 55 | 1021.9 |
| 20260905182009 | 22 | 98 | 0.0 | 1.6 | 0.00 | 0.00 | 0.00 | 54 | 1021.9 |
| 20260905181518 | 22 | 98 | 0.0 | 1.6 | 0.00 | 0.00 | 0.00 | 54 | 1021.8 |
| 20260905181011 | 22 | 98 | 0.0 | 1.6 | 0.00 | 0.00 | 0.00 | 53 | 1021.8 |
| 20260905180515 | 22 | 98 | 0.0 | 1.6 | 0.00 | 0.00 | 0.00 | 53 | 1021.7 |
| 20260905180022 | 22 | 93 | 0.0 | 1.6 | 0.00 | 0.00 | 0.00 | 53 | 1021.7 |
| 20260905175513 | 22 | 92 | 0.0 | 1.6 | 0.00 | 0.00 | 0.00 | 53 | 1021.6 |
| 20260905175016 | 22 | 92 | 0.0 | 1.6 | 0.00 | 0.00 | 0.00 | 53 | 1021.6 |
| 20260905174527 | 22 | 92 | 0.0 | 1.6 | 0.00 | 0.00 | 0.00 | 52 | 1021.5 |
| 20260905174016 | 23 | 92 | 0.0 | 3.2 | 0.00 | 0.00 | 0.00 | 52 | 1021.3 |
| 20260905173514 | 23 | 92 | 0.0 | 3.2 | 0.00 | 0.00 | 0.00 | 51 | 1021.3 |
| 20260905173004 | 23 | 136 | 0.0 | 1.6 | 0.00 | 0.00 | 0.00 | 50 | 1021.1 |
| 20260905172506 | 23 | 136 | 0.0 | 1.6 | 0.00 | 0.00 | 0.00 | 49 | 1021.0 |
| 20260905172011 | 23 | 136 | 0.0 | 1.6 | 0.00 | 0.00 | 0.00 | 49 | 1021.0 |
| 20260905171510 | 23 | 136 | 0.0 | 1.6 | 0.00 | 0.00 | 0.00 | 49 | 1021.1 |
| 20260905171007 | 23 | 136 | 0.0 | 1.6 | 0.00 | 0.00 | 0.00 | 49 | 1021.1 |
| 20260905170510 | 23 | 136 | 0.0 | 1.6 | 0.00 | 0.00 | 0.00 | 49 | 1021.2 |
| 20260905170017 | 23 | 136 | 0.0 | 1.6 | 0.00 | 0.00 | 0.00 | 51 | 1021.1 |
| 20260905165512 | 23 | 136 | 0.0 | 1.6 | 0.00 | 0.00 | 0.00 | 49 | 1021.1 |
| 20260905165013 | 23 | 136 | 0.0 | 1.6 | 0.00 | 0.00 | 0.00 | 50 | 1021.0 |
| 20260905164527 | 23 | 136 | 0.0 | 1.6 | 0.00 | 0.00 | 0.00 | 50 | 1021.0 |
| 20260905164015 | 24 | 138 | 0.0 | 1.6 | 0.00 | 0.00 | 0.00 | 49 | 1020.9 |
| 20260905163514 | 24 | 140 | 0.0 | 1.6 | 0.00 | 0.00 | 0.00 | 49 | 1020.8 |
| 20260905163028 | 24 | 105 | 0.0 | 1.6 | 0.00 | 0.00 | 0.00 | 48 | 1020.8 |
| 20260905162514 | 24 | 104 | 0.0 | 4.8 | 0.00 | 0.00 | 0.00 | 49 | 1020.7 |
| 20260905162016 | 24 | 54 | 1.6 | 4.8 | 0.00 | 0.00 | 0.00 | 48 | 1020.6 |
| 20260905161507 | 25 | 41 | 0.0 | 4.8 | 0.00 | 0.00 | 0.00 | 48 | 1020.7 |
| 20260905161008 | 25 | 129 | 0.0 | 4.8 | 0.00 | 0.00 | 0.00 | 47 | 1020.6 |
| 20260905160509 | 25 | 203 | 1.6 | 4.8 | 0.00 | 0.00 | 0.00 | 46 | 1020.7 |
| 20260905160014 | 25 | 40 | 0.0 | 4.8 | 0.00 | 0.00 | 0.00 | 47 | 1020.7 |
| 20260905155512 | 25 | 101 | 0.0 | 4.8 | 0.00 | 0.00 | 0.00 | 45 | 1020.6 |
| 20260905155008 | 26 | 141 | 0.0 | 4.8 | 0.00 | 0.00 | 0.00 | 44 | 1020.6 |
| 20260905154516 | 27 | 39 | 3.2 | 6.4 | 0.00 | 0.00 | 0.00 | 42 | 1020.4 |
| 20260905154016 | 27 | 126 | 0.0 | 6.4 | 0.00 | 0.00 | 0.00 | 42 | 1020.3 |
| 20260905153514 | 28 | 92 | 1.6 | 8.0 | 0.00 | 0.00 | 0.00 | 42 | 1020.3 |
| 20260905153028 | 27 | 325 | 1.6 | 8.0 | 0.00 | 0.00 | 0.00 | 41 | 1020.2 |
| 20260905152515 | 28 | 281 | 1.6 | 6.4 | 0.00 | 0.00 | 0.00 | 39 | 1020.2 |
| 20260905152014 | 28 | 18 | 1.6 | 6.4 | 0.00 | 0.00 | 0.00 | 39 | 1020.2 |
| 20260905151535 | 28 | 67 | 1.6 | 4.8 | 0.00 | 0.00 | 0.00 | 39 | 1020.1 |
| 20260905151019 | 28 | 102 | 1.6 | 8.0 | 0.00 | 0.00 | 0.00 | 40 | 1020.1 |
| 20260905150523 | 28 | 185 | 3.2 | 9.7 | 0.00 | 0.00 | 0.00 | 39 | 1020.1 |
| 20260905150011 | 28 | 177 | 1.6 | 11.3 | 0.00 | 0.00 | 0.00 | 40 | 1020.1 |
| 20260905145508 | 28 | 125 | 1.6 | 11.3 | 0.00 | 0.00 | 0.00 | 40 | 1020.0 |
| 20260905145008 | 28 | 115 | 1.6 | 9.7 | 0.00 | 0.00 | 0.00 | 40 | 1020.0 |
| 20260905144523 | 29 | 179 | 3.2 | 9.7 | 0.00 | 0.00 | 0.00 | 37 | 1020.0 |
| 20260905144010 | 30 | 158 | 1.6 | 4.8 | 0.00 | 0.00 | 0.00 | 38 | 1020.0 |
| 20260905143511 | 29 | 278 | 1.6 | 6.4 | 0.00 | 0.00 | 0.00 | 38 | 1020.0 |
| 20260905143023 | 28 | 193 | 1.6 | 9.7 | 0.00 | 0.00 | 0.00 | 40 | 1019.9 |
| 20260905142512 | 28 | 61 | 1.6 | 9.7 | 0.00 | 0.00 | 0.00 | 40 | 1020.0 |
| 20260905142016 | 28 | 204 | 4.8 | 9.7 | 0.00 | 0.00 | 0.00 | 39 | 1019.9 |
| 20260905141526 | 29 | 57 | 3.2 | 8.0 | 0.00 | 0.00 | 0.00 | 41 | 1019.9 |
| 20260905141017 | 28 | 26 | 1.6 | 8.0 | 0.00 | 0.00 | 0.00 | 42 | 1020.0 |
| 20260905140523 | 27 | 184 | 1.6 | 8.0 | 0.00 | 0.00 | 0.00 | 43 | 1020.0 |
| 20260905140033 | 27 | 146 | 1.6 | 6.4 | 0.00 | 0.00 | 0.00 | 45 | 1019.9 |
| 20260905135515 | 27 | 176 | 1.6 | 6.4 | 0.00 | 0.00 | 0.00 | 44 | 1020.0 |
| 20260905135008 | 27 | 309 | 1.6 | 16.1 | 0.00 | 0.00 | 0.00 | 44 | 1020.0 |
| 20260905134511 | 27 | 198 | 3.2 | 16.1 | 0.00 | 0.00 | 0.00 | 43 | 1019.9 |
| 20260905134008 | 27 | 165 | 3.2 | 12.9 | 0.00 | 0.00 | 0.00 | 43 | 1019.9 |
| 20260905133513 | 28 | 160 | 4.8 | 12.9 | 0.00 | 0.00 | 0.00 | 42 | 1019.9 |
| 20260905133024 | 28 | 208 | 3.2 | 16.1 | 0.00 | 0.00 | 0.00 | 43 | 1020.0 |
| 20260905132514 | 28 | 141 | 1.6 | 16.1 | 0.00 | 0.00 | 0.00 | 42 | 1019.7 |
| 20260905132012 | 29 | 170 | 1.6 | 11.3 | 0.00 | 0.00 | 0.00 | 42 | 1019.7 |
| 20260905131527 | 29 | 191 | 3.2 | 9.7 | 0.00 | 0.00 | 0.00 | 42 | 1019.7 |
| 20260905131013 | 29 | 184 | 3.2 | 12.9 | 0.00 | 0.00 | 0.00 | 42 | 1019.6 |
| 20260905130503 | 29 | 141 | 3.2 | 16.1 | 0.00 | 0.00 | 0.00 | 43 | 1019.5 |
| 20260905130004 | 28 | 284 | 4.8 | 16.1 | 0.00 | 0.00 | 0.00 | 43 | 1019.6 |
| 20260905125503 | 29 | 306 | 4.8 | 12.9 | 0.00 | 0.00 | 0.00 | 43 | 1019.5 |
| 20260905125004 | 30 | 185 | 6.4 | 12.9 | 0.00 | 0.00 | 0.00 | 41 | 1019.6 |
| 20260905124509 | 30 | 108 | 1.6 | 11.3 | 0.00 | 0.00 | 0.00 | 41 | 1019.6 |
| 20260905124007 | 30 | 53 | 3.2 | 9.7 | 0.00 | 0.00 | 0.00 | 44 | 1019.5 |
| 20260905123508 | 30 | 76 | 0.0 | 11.3 | 0.00 | 0.00 | 0.00 | 46 | 1019.6 |
| 20260905123012 | 28 | 103 | 3.2 | 11.3 | 0.00 | 0.00 | 0.00 | 45 | 1019.5 |
| 20260905122510 | 28 | 250 | 4.8 | 17.7 | 0.00 | 0.00 | 0.00 | 45 | 1019.5 |
| 20260905122012 | 28 | 141 | 3.2 | 17.7 | 0.00 | 0.00 | 0.00 | 45 | 1019.5 |
| 20260905121519 | 29 | 237 | 4.8 | 14.5 | 0.00 | 0.00 | 0.00 | 43 | 1019.5 |
| 20260905121013 | 29 | 191 | 3.2 | 17.7 | 0.00 | 0.00 | 0.00 | 44 | 1019.5 |
| 20260905120517 | 29 | 207 | 3.2 | 19.3 | 0.00 | 0.00 | 0.00 | 45 | 1019.5 |
| 20260905120024 | 29 | 186 | 4.8 | 19.3 | 0.00 | 0.00 | 0.00 | 44 | 1019.5 |
| 20260905115519 | 29 | 196 | 3.2 | 19.3 | 0.00 | 0.00 | 0.00 | 46 | 1019.7 |
| 20260905115004 | 29 | 221 | 4.8 | 19.3 | 0.00 | 0.00 | 0.00 | 46 | 1019.5 |
| 20260905114507 | 29 | 160 | 1.6 | 11.3 | 0.00 | 0.00 | 0.00 | 46 | 1019.4 |
| 20260905114008 | 28 | 231 | 1.6 | 14.5 | 0.00 | 0.00 | 0.00 | 48 | 1019.4 |
| 20260905113507 | 28 | 181 | 6.4 | 14.5 | 0.00 | 0.00 | 0.00 | 48 | 1019.4 |
| 20260905113012 | 28 | 175 | 4.8 | 19.3 | 0.00 | 0.00 | 0.00 | 50 | 1019.4 |
| 20260905112510 | 27 | 121 | 6.4 | 19.3 | 0.00 | 0.00 | 0.00 | 50 | 1019.4 |
| 20260905112010 | 28 | 218 | 6.4 | 20.9 | 0.00 | 0.00 | 0.00 | 49 | 1019.5 |
| 20260905111514 | 28 | 77 | 4.8 | 20.9 | 0.00 | 0.00 | 0.00 | 51 | 1019.4 |
| 20260905111012 | 28 | 235 | 3.2 | 14.5 | 0.00 | 0.00 | 0.00 | 51 | 1019.5 |
| 20260905110515 | 28 | 207 | 8.0 | 14.5 | 0.00 | 0.00 | 0.00 | 50 | 1019.6 |
| 20260905110023 | 28 | 68 | 1.6 | 8.0 | 0.00 | 0.00 | 0.00 | 51 | 1019.5 |
| 20260905105517 | 28 | 150 | 0.0 | 9.7 | 0.00 | 0.00 | 0.00 | 52 | 1019.5 |
| 20260905105015 | 28 | 226 | 1.6 | 9.7 | 0.00 | 0.00 | 0.00 | 49 | 1019.5 |
| 20260905104528 | 28 | 198 | 1.6 | 9.7 | 0.00 | 0.00 | 0.00 | 47 | 1019.5 |
| 20260905104022 | 28 | 109 | 1.6 | 4.8 | 0.00 | 0.00 | 0.00 | 43 | 1019.5 |
| 20260905103505 | 28 | 108 | 1.6 | 11.3 | 0.00 | 0.00 | 0.00 | 45 | 1019.4 |
| 20260905103007 | 28 | 44 | 4.8 | 11.3 | 0.00 | 0.00 | 0.00 | 42 | 1019.4 |
| 20260905102505 | 28 | 127 | 0.0 | 3.2 | 0.00 | 0.00 | 0.00 | 45 | 1019.4 |
| 20260905102008 | 28 | 139 | 0.0 | 3.2 | 0.00 | 0.00 | 0.00 | 41 | 1019.3 |
| 20260905101515 | 28 | 90 | 0.0 | 3.2 | 0.00 | 0.00 | 0.00 | 41 | 1019.3 |
| 20260905101007 | 27 | 49 | 0.0 | 3.2 | 0.00 | 0.00 | 0.00 | 42 | 1019.3 |
| 20260905100512 | 28 | 91 | 1.6 | 3.2 | 0.00 | 0.00 | 0.00 | 41 | 1019.3 |
| 20260905100034 | 28 | 91 | 0.0 | 9.7 | 0.00 | 0.00 | 0.00 | 41 | 1019.3 |
| 20260905095517 | 28 | 55 | 3.2 | 9.7 | 0.00 | 0.00 | 0.00 | 40 | 1019.4 |
| 20260905095013 | 27 | 46 | 1.6 | 6.4 | 0.00 | 0.00 | 0.00 | 43 | 1019.3 |
| 20260905094524 | 27 | 47 | 1.6 | 6.4 | 0.00 | 0.00 | 0.00 | 42 | 1019.3 |
| 20260905094014 | 27 | 47 | 3.2 | 12.9 | 0.00 | 0.00 | 0.00 | 42 | 1019.4 |
| 20260905093513 | 27 | 43 | 4.8 | 12.9 | 0.00 | 0.00 | 0.00 | 43 | 1019.3 |
| 20260905093030 | 27 | 70 | 4.8 | 9.7 | 0.00 | 0.00 | 0.00 | 42 | 1019.3 |
| 20260905092508 | 27 | 40 | 0.0 | 9.7 | 0.00 | 0.00 | 0.00 | 45 | 1019.3 |
| 20260905092009 | 27 | 58 | 6.4 | 9.7 | 0.00 | 0.00 | 0.00 | 41 | 1019.3 |
| 20260905091512 | 27 | 58 | 4.8 | 11.3 | 0.00 | 0.00 | 0.00 | 42 | 1019.3 |
| 20260905091013 | 27 | 146 | 1.6 | 11.3 | 0.00 | 0.00 | 0.00 | 41 | 1019.3 |
| 20260905090509 | 28 | 58 | 3.2 | 9.7 | 0.00 | 0.00 | 0.00 | 40 | 1019.2 |
| 20260905090016 | 28 | 136 | 0.0 | 6.4 | 0.00 | 0.00 | 0.00 | 40 | 1019.2 |
| 20260905085510 | 27 | 49 | 3.2 | 9.7 | 0.00 | 0.00 | 0.00 | 42 | 1019.1 |
| 20260905085009 | 27 | 61 | 1.6 | 9.7 | 0.00 | 0.00 | 0.00 | 43 | 1019.1 |
| 20260905084519 | 27 | 56 | 1.6 | 8.0 | 0.00 | 0.00 | 0.00 | 41 | 1019.0 |
| 20260905084013 | 27 | 53 | 1.6 | 8.0 | 0.00 | 0.00 | 0.00 | 43 | 1019.0 |
| 20260905083519 | 26 | 78 | 1.6 | 8.0 | 0.00 | 0.00 | 0.00 | 45 | 1019.0 |
| 20260905083025 | 26 | 46 | 1.6 | 9.7 | 0.00 | 0.00 | 0.00 | 44 | 1019.0 |
| 20260905082515 | 26 | 58 | 4.8 | 9.7 | 0.00 | 0.00 | 0.00 | 43 | 1019.1 |
| 20260905082014 | 26 | 37 | 4.8 | 11.3 | 0.00 | 0.00 | 0.00 | 44 | 1019.0 |
| 20260905081528 | 25 | 65 | 4.8 | 11.3 | 0.00 | 0.00 | 0.00 | 45 | 1019.0 |
| 20260905081010 | 25 | 19 | 4.8 | 8.0 | 0.00 | 0.00 | 0.00 | 44 | 1018.8 |
| 20260905080505 | 25 | 45 | 3.2 | 8.0 | 0.00 | 0.00 | 0.00 | 46 | 1018.7 |
| 20260905080014 | 25 | 61 | 3.2 | 6.4 | 0.00 | 0.00 | 0.00 | 47 | 1018.7 |
| 20260905075509 | 25 | 55 | 1.6 | 9.7 | 0.00 | 0.00 | 0.00 | 46 | 1018.6 |
| 20260905075009 | 24 | 48 | 3.2 | 9.7 | 0.00 | 0.00 | 0.00 | 47 | 1018.6 |
| 20260905074522 | 24 | 39 | 1.6 | 8.0 | 0.00 | 0.00 | 0.00 | 48 | 1018.7 |
| 20260905074015 | 24 | 71 | 0.0 | 9.7 | 0.00 | 0.00 | 0.00 | 47 | 1018.6 |
| 20260905073513 | 24 | 58 | 3.2 | 9.7 | 0.00 | 0.00 | 0.00 | 47 | 1018.7 |
| 20260905073023 | 24 | 90 | 4.8 | 11.3 | 0.00 | 0.00 | 0.00 | 47 | 1018.5 |
| 20260905072512 | 24 | 51 | 3.2 | 11.3 | 0.00 | 0.00 | 0.00 | 46 | 1018.4 |
| 20260905072015 | 24 | 57 | 3.2 | 11.3 | 0.00 | 0.00 | 0.00 | 47 | 1018.3 |
| 20260905071524 | 24 | 49 | 6.4 | 11.3 | 0.00 | 0.00 | 0.00 | 46 | 1018.3 |
| 20260905071015 | 23 | 75 | 1.6 | 9.7 | 0.00 | 0.00 | 0.00 | 48 | 1018.2 |
| 20260905070513 | 23 | 55 | 3.2 | 9.7 | 0.00 | 0.00 | 0.00 | 47 | 1018.2 |
| 20260905070032 | 23 | 58 | 1.6 | 6.4 | 0.00 | 0.00 | 0.00 | 48 | 1018.2 |
| 20260905065506 | 23 | 68 | 1.6 | 6.4 | 0.00 | 0.00 | 0.00 | 49 | 1018.1 |
| 20260905065009 | 23 | 49 | 1.6 | 6.4 | 0.00 | 0.00 | 0.00 | 50 | 1018.0 |
| 20260905064514 | 23 | 56 | 3.2 | 8.0 | 0.00 | 0.00 | 0.00 | 48 | 1018.0 |
| 20260905064013 | 23 | 64 | 1.6 | 9.7 | 0.00 | 0.00 | 0.00 | 48 | 1018.0 |
| 20260905063511 | 23 | 59 | 3.2 | 9.7 | 0.00 | 0.00 | 0.00 | 47 | 1018.0 |
| 20260905063018 | 23 | 56 | 1.6 | 8.0 | 0.00 | 0.00 | 0.00 | 48 | 1018.0 |
| 20260905062514 | 23 | 58 | 1.6 | 9.7 | 0.00 | 0.00 | 0.00 | 47 | 1018.0 |
| 20260905062018 | 22 | 92 | 1.6 | 9.7 | 0.00 | 0.00 | 0.00 | 48 | 1018.0 |
| 20260905061524 | 22 | 53 | 3.2 | 9.7 | 0.00 | 0.00 | 0.00 | 48 | 1018.1 |
| 20260905061015 | 22 | 65 | 1.6 | 8.0 | 0.00 | 0.00 | 0.00 | 48 | 1018.1 |
| 20260905060516 | 22 | 128 | 1.6 | 12.9 | 0.00 | 0.00 | 0.00 | 48 | 1018.0 |
| 20260905060040 | 22 | 21 | 1.6 | 12.9 | 0.00 | 0.00 | 0.00 | 49 | 1018.1 |
| 20260905055513 | 22 | 63 | 1.6 | 11.3 | 0.00 | 0.00 | 0.00 | 49 | 1018.1 |
| 20260905055014 | 21 | 139 | 3.2 | 14.5 | 0.00 | 0.00 | 0.00 | 50 | 1018.1 |
| 20260905054525 | 21 | 86 | 3.2 | 14.5 | 0.00 | 0.00 | 0.00 | 51 | 1018.1 |
| 20260905054008 | 21 | 44 | 4.8 | 8.0 | 0.00 | 0.00 | 0.00 | 51 | 1018.1 |
| 20260905053507 | 21 | 77 | 1.6 | 9.7 | 0.00 | 0.00 | 0.00 | 52 | 1018.0 |
| 20260905053016 | 21 | 91 | 1.6 | 11.3 | 0.00 | 0.00 | 0.00 | 51 | 1018.0 |
| 20260905052511 | 21 | 72 | 4.8 | 11.3 | 0.00 | 0.00 | 0.00 | 52 | 1017.9 |
| 20260905052012 | 21 | 124 | 0.0 | 3.2 | 0.00 | 0.00 | 0.00 | 53 | 1017.9 |
| 20260905051519 | 21 | 100 | 0.0 | 6.4 | 0.00 | 0.00 | 0.00 | 52 | 1017.8 |
| 20260905051015 | 21 | 68 | 1.6 | 9.7 | 0.00 | 0.00 | 0.00 | 52 | 1017.8 |
| 20260905050517 | 21 | 104 | 3.2 | 12.9 | 0.00 | 0.00 | 0.00 | 51 | 1017.7 |
| 20260905050027 | 21 | 65 | 3.2 | 12.9 | 0.00 | 0.00 | 0.00 | 50 | 1017.7 |
| 20260905045521 | 21 | 51 | 1.6 | 6.4 | 0.00 | 0.00 | 0.00 | 51 | 1017.7 |
| 20260905045016 | 21 | 98 | 0.0 | 8.0 | 0.00 | 0.00 | 0.00 | 50 | 1017.6 |
| 20260905044531 | 21 | 77 | 0.0 | 11.3 | 0.00 | 0.00 | 0.00 | 49 | 1017.6 |
| 20260905044019 | 21 | 119 | 1.6 | 12.9 | 0.00 | 0.00 | 0.00 | 49 | 1017.5 |
| 20260905043519 | 21 | 110 | 1.6 | 12.9 | 0.00 | 0.00 | 0.00 | 49 | 1017.5 |
| 20260905043015 | 21 | 95 | 0.0 | 12.9 | 0.00 | 0.00 | 0.00 | 49 | 1017.5 |
| 20260905042513 | 21 | 79 | 1.6 | 12.9 | 0.00 | 0.00 | 0.00 | 48 | 1017.4 |
| 20260905042011 | 21 | 59 | 1.6 | 12.9 | 0.00 | 0.00 | 0.00 | 49 | 1017.4 |
| 20260905041520 | 21 | 57 | 3.2 | 11.3 | 0.00 | 0.00 | 0.00 | 48 | 1017.4 |
| 20260905041013 | 21 | 65 | 0.0 | 8.0 | 0.00 | 0.00 | 0.00 | 48 | 1017.4 |
| 20260905040516 | 21 | 131 | 3.2 | 12.9 | 0.00 | 0.00 | 0.00 | 48 | 1017.4 |
| 20260905040027 | 21 | 81 | 1.6 | 12.9 | 0.00 | 0.00 | 0.00 | 48 | 1017.4 |